User: anonymous   Login
Location: Franzen
(48.6167°N, 15.3833°E)
Time: 08:38:14
(UTC+00:00)
Language:

Cosmos 2221 - Orbit

View from above orbital plane
View from above orbital plane
View from above satellite
View from above satellite

Ground track
Ground track

The orbit data is extracted from the following two-line orbital elements,

1 22236U 92080A   21166.89178205  .00000208  00000-0  19936-4 0  9992
2 22236  82.5074 120.2151 0016174 189.8438 170.2465 14.88061050523317
Epoch (UTC): 15 June 2021 21:24:09
Eccentricity: 0.0016174
inclination: 82.5074°
perigee height: 593 km
apogee height: 615 km
right ascension of ascending node: 120.2151°
argument of perigee: 189.8438°
revolutions per day: 14.88061050
mean anomaly at epoch: 170.2465°
orbit number at epoch: 52331

The dashed part of the orbit path shows where the satellite is in the earth's shadow,  

DLR